Wetbulb
53.00 52.52 52.59 52.86 52.66 52.41 52.30 52.71 53.50 52.66 51.95 51.47 51.25 50.96 50.78 50.25 50.36 50.24 49.72 49.02 48.80 48.66
52.68 52.06 51.80 52.60 52.67 52.09 52.50 51.82 52.13 51.98 51.47 51.17 50.57 50.55 50.48 49.63 49.44 49.68 49.32 49.14 49.08 49.06
53.44 52.98 52.56 52.32 51.74 52.06 52.15 52.08 51.60 51.20 51.04 50.74 50.55 50.43 50.04 49.55 49.74 49.01 49.34 48.89 48.50 48.57
54.26 53.71 53.02 52.19 52.32 52.41 52.38 52.12 51.35 51.01 50.64 50.44 50.00 50.26 49.74 49.48 49.37 48.74 48.61 48.93 48.05 47.76
54.50 54.33 53.70 53.47 53.43 53.11 52.11 52.37 51.65 51.06 50.29 49.90 49.83 50.05 49.68 49.14 48.94 48.29 47.94 48.31 48.07 47.58
55.06 54.95 54.70 54.34 53.95 53.23 52.34 51.94 51.77 50.58 49.70 49.82 49.78 49.82 49.94 49.61 49.27 49.11 48.96 48.78 48.37 48.24
55.88 55.55 54.64 53.86 52.69 51.93 51.71 51.04 51.00 50.70 50.19 49.89 49.74 49.77 49.69 49.38 49.30 49.40 49.23 49.25 49.04 48.74
55.52 54.29 53.47 53.00 52.71 52.01 51.03 50.42 50.46 49.68 49.74 49.80 49.56 49.25 50.04 49.68 49.45 49.24 49.23 49.64 49.28 49.20
53.92 53.44 53.67 53.67 52.68 51.84 51.36 51.05 50.26 49.55 48.93 49.03 48.88 49.65 49.33 48.27 49.17 49.37 48.80 48.47 49.34 49.71
53.04 52.76 53.75 52.86 52.05 51.67 51.68 51.54 50.82 50.40 49.83 49.73 50.08 50.32 48.97 49.24 48.93 49.15 49.57 49.21 49.08 48.51
52.94 53.00 52.89 52.05 51.99 52.60 52.58 51.59 51.18 50.46 50.69 50.36 50.20 49.77 48.39 48.40 49.20 49.55 50.11 50.52 50.33 49.33
53.28 52.06 51.62 52.02 52.59 52.84 51.80 51.81 51.42 51.03 50.74 50.54 50.81 50.40 48.36 47.72 49.12 49.38 49.89 50.52 50.80 50.28
52.54 51.42 51.68 52.20 51.97 51.73 50.94 49.91 50.31 50.19 50.94 50.68 49.47 49.78 48.13 47.21 48.63 48.50 49.02 50.15 49.70 49.22
52.34 52.04 52.03 51.64 51.80 51.15 50.59 50.21 50.27 49.93 50.54 50.19 49.94 49.30 47.93 47.12 47.66 47.85 47.97 47.92 48.02 48.91
MSLP
1019.16 1019.29 1019.13 1018.99 1018.92 1018.71 1018.54 1018.34 1018.31 1018.62 1018.88 1018.98 1019.12 1019.36 1019.58 1019.59 1019.53 1019.59 1019.64 1019.73 1019.92 1020.01
1018.38 1018.38 1018.21 1018.22 1018.31 1018.26 1018.17 1018.00 1017.90 1018.00 1018.11 1018.34 1018.55 1018.56 1018.67 1018.69 1018.62 1018.88 1019.04 1019.04 1019.22 1019.19
1017.40 1017.56 1017.63 1017.66 1017.51 1017.36 1017.38 1017.43 1017.52 1017.54 1017.54 1017.61 1017.67 1017.80 1018.01 1018.02 1018.06 1018.16 1018.08 1018.25 1018.28 1017.87
1016.71 1016.77 1016.84 1016.88 1016.88 1016.87 1016.85 1016.88 1016.77 1016.83 1016.95 1016.99 1017.00 1017.07 1017.20 1017.14 1017.15 1017.08 1017.02 1017.02 1016.94 1016.90
1016.17 1016.26 1016.29 1016.18 1016.18 1016.17 1016.11 1016.14 1016.33 1016.41 1016.37 1016.27 1016.31 1016.34 1016.29 1016.23 1016.20 1015.99 1015.76 1015.68 1015.90 1015.78
1015.46 1015.52 1015.57 1015.61 1015.65 1015.64 1015.57 1015.48 1015.57 1015.73 1015.61 1015.46 1015.40 1015.34 1015.31 1015.33 1015.17 1015.05 1014.98 1014.98 1014.92 1014.61
1015.00 1015.10 1015.19 1015.22 1015.25 1015.24 1015.19 1015.11 1014.88 1014.85 1014.72 1014.63 1014.60 1014.53 1014.57 1014.53 1014.40 1014.19 1013.92 1013.96 1014.02 1014.00
1014.68 1014.94 1014.99 1015.00 1014.87 1014.70 1014.63 1014.42 1014.24 1014.12 1014.07 1014.15 1014.17 1014.01 1013.75 1013.88 1013.81 1013.60 1013.46 1013.06 1013.10 1013.30
1014.60 1014.59 1014.66 1014.66 1014.50 1014.36 1014.18 1014.04 1013.82 1013.61 1013.60 1013.43 1013.19 1013.10 1013.35 1013.43 1012.99 1012.68 1012.32 1012.07 1011.92 1011.87
1014.08 1014.20 1014.15 1014.10 1013.94 1013.70 1013.41 1013.14 1013.07 1012.97 1013.01 1012.84 1012.52 1012.36 1012.50 1012.63 1012.63 1012.08 1011.66 1011.57 1011.29 1011.17
1013.80 1013.82 1013.78 1013.72 1013.53 1013.24 1013.07 1012.99 1012.79 1012.65 1012.43 1012.25 1011.88 1011.90 1011.99 1012.00 1011.74 1011.29 1010.87 1010.35 1010.02 1010.11
1013.45 1013.44 1013.39 1013.24 1013.15 1013.02 1012.87 1012.69 1012.44 1012.23 1011.97 1011.75 1011.43 1011.36 1011.55 1011.59 1010.92 1010.03 1009.61 1009.60 1009.57 1009.43
1013.08 1013.12 1012.99 1012.94 1012.98 1012.91 1012.85 1012.49 1012.17 1011.69 1011.54 1011.37 1011.34 1011.15 1011.20 1011.09 1010.48 1009.92 1009.37 1009.19 1009.23 1009.25
1012.63 1012.72 1012.72 1012.81 1012.78 1012.67 1012.49 1012.29 1012.04 1011.75 1011.49 1011.36 1011.12 1010.92 1011.02 1011.02 1010.60 1009.76 1009.11 1008.75 1008.78 1008.70
Wind_Speed
13 9 10 12 10 10 9 9 10 10 12 14 14 13 13 12 12 14 13 17 15 12
11 13 12 12 11 9 11 10 11 11 11 11 12 13 13 11 13 13 13 14 14 13
9 10 11 10 12 12 11 11 11 11 11 11 11 12 13 12 12 13 12 11 15 15
7 8 9 9 10 10 10 10 11 11 10 11 11 12 12 13 13 14 14 15 16 18
5 6 7 8 9 9 10 10 10 10 10 11 11 11 13 14 13 15 16 16 17 18
5 6 7 8 8 9 10 10 9 9 11 11 11 12 13 14 15 15 16 16 17 17
5 5 6 7 8 8 9 10 9 10 11 11 11 12 12 13 14 15 15 16 16 17
5 5 6 7 8 8 8 9 9 10 11 11 10 9 12 12 13 14 15 16 16 16
5 6 7 7 7 7 7 8 9 9 10 11 8 11 13 14 13 14 15 15 15 15
5 7 7 7 6 7 7 7 9 9 9 11 12 11 15 16 13 14 14 14 13 13
5 7 6 6 6 7 7 7 8 8 9 10 10 9 13 15 13 13 15 16 16 15
5 6 6 7 7 7 7 7 7 8 10 10 12 8 9 10 10 12 14 13 14 14
5 6 7 6 7 5 6 8 7 10 10 10 11 9 10 10 8 11 9 10 11 11
5 5 6 6 6 6 7 8 9 10 10 10 8 10 10 11 8 8 8 7 7 7
Wind_Direction
234 239 245 249 254 256 254 255 253 240 238 244 241 239 238 239 238 238 237 236 235 242
234 236 246 252 253 256 260 261 256 250 245 241 243 240 236 239 240 237 242 243 239 242
241 245 251 255 255 251 255 255 256 252 245 244 240 238 237 241 243 244 242 243 242 239
245 247 250 253 259 258 260 257 252 250 249 245 240 238 238 239 242 240 242 239 239 244
249 250 253 257 260 259 258 258 260 259 253 247 243 241 240 242 239 241 241 239 242 245
248 258 273 281 278 270 266 264 263 256 254 251 244 241 238 241 243 244 247 247 246 247
266 282 292 294 289 283 278 273 265 258 257 252 249 247 246 244 247 248 249 250 251 252
271 288 295 292 289 285 276 271 267 263 261 260 256 253 247 245 252 255 258 254 253 254
284 289 293 297 298 295 284 276 271 267 268 268 259 255 240 246 259 257 256 260 260 257
285 292 299 300 294 287 280 279 276 277 275 276 274 257 250 248 253 261 262 267 268 266
282 286 295 292 287 290 291 292 296 292 286 281 283 272 269 264 258 260 261 259 256 261
269 274 276 283 295 300 296 295 293 291 291 289 292 299 288 285 275 263 261 264 264 260
254 261 275 288 292 295 282 283 287 291 295 295 296 306 304 291 282 280 282 280 274 255
243 262 278 283 276 280 282 288 294 297 305 310 309 304 313 314 294 291 292 292 290 285